Vorticity
nan nan nan nan nan nan nan nan nan nan nan nan nan nan nan nan nan nan nan nan nan nan nan nan nan nan nan nan nan nan nan nan nan
nan 8 12 11 11 11 12 10 12 11 6 11 6 6 6 8 9 7 8 9 7 8 9 10 10 9 7 7 5 8 9 6 nan
nan 9 11 11 11 12 12 15 14 4 4 4 3 7 6 10 9 8 8 9 9 7 10 10 9 8 7 6 6 7 7 8 nan
nan 6 8 15 16 15 15 14 10 3 3 6 9 7 11 12 7 7 8 8 10 10 9 10 9 9 8 8 8 6 8 8 nan
nan 9 12 15 15 11 11 7 7 9 9 12 9 8 11 7 8 7 9 12 11 11 8 8 9 10 9 9 8 7 9 7 nan
nan 10 8 10 10 9 7 7 9 10 9 7 10 11 9 6 4 7 9 9 10 11 11 10 11 9 10 9 8 8 8 10 nan
nan 7 7 9 8 8 7 7 8 9 9 10 9 7 8 9 8 8 7 7 11 11 12 11 11 9 10 9 9 9 8 10 nan
nan 8 8 8 7 8 7 7 8 10 10 8 9 8 7 9 8 8 9 10 12 13 12 11 10 10 10 10 10 9 10 8 nan
nan 8 10 9 8 9 9 10 11 8 9 12 11 11 10 11 13 14 13 13 12 12 11 11 10 9 10 9 10 11 8 6 nan
nan 8 10 10 10 10 10 10 9 11 16 17 12 10 13 13 16 15 14 15 16 14 12 11 11 10 9 9 12 14 10 7 nan
nan 9 10 10 11 11 11 12 12 13 13 12 11 10 11 12 12 12 12 11 11 13 13 11 11 12 11 11 13 14 11 12 nan
nan 11 10 12 12 11 13 11 11 11 9 9 9 9 8 9 9 9 8 8 10 11 11 11 12 10 10 10 11 15 13 9 nan
nan 12 13 12 10 12 12 10 10 8 8 8 8 8 7 7 7 7 8 8 9 10 9 9 8 10 12 9 11 14 13 7 nan
nan 13 11 9 12 11 9 9 9 9 9 8 8 7 7 6 7 7 8 9 9 8 8 9 9 10 10 13 12 15 15 6 nan
nan 7 6 8 10 9 9 9 8 9 8 8 7 7 6 7 8 9 9 9 8 9 9 9 9 10 11 11 11 12 15 15 nan
nan 8 5 9 10 7 8 7 10 8 8 9 8 7 8 9 10 9 9 10 9 10 10 9 9 9 9 9 12 12 9 12 nan
nan 9 8 11 9 7 8 10 9 9 12 10 8 8 9 10 11 11 11 11 11 9 9 9 9 9 10 10 9 9 11 11 nan
nan 9 9 11 8 9 11 12 10 11 10 10 9 9 10 11 11 10 11 11 10 9 9 5 6 7 7 8 8 10 8 4 nan
nan 9 8 9 11 12 11 10 9 9 10 10 9 9 10 11 10 11 11 9 13 15 9 7 9 7 4 7 6 6 10 9 nan
nan nan nan nan nan nan nan nan nan nan nan nan nan nan nan nan nan nan nan nan nan nan nan nan nan nan nan nan nan nan nan nan nan
CAPE
111 80 130 184 248 281 153 382 463 455 468 530 555 560 605 570 544 584 506 488 622 913 941 891 722 676 271 82 15 10 8 46 195
429 276 217 234 143 60 261 481 441 573 716 822 898 863 776 880 832 654 657 839 771 917 1028 640 339 86 26 34 54 40 6 0 32
359 272 212 175 38 0 180 520 770 925 323 195 334 924 626 564 507 773 804 814 1150 1316 1272 793 360 62 51 57 70 3 0 0 0
252 558 821 279 68 457 644 976 1117 1117 681 254 25 355 336 159 181 435 866 977 986 1000 1393 1053 498 182 104 160 90 0 0 0 1
999 1043 475 318 529 823 902 948 964 865 944 723 624 474 133 20 107 160 363 1467 1308 1129 1012 1160 807 377 280 283 63 0 0 80 267
1222 965 371 301 434 729 816 770 531 404 330 374 72 0 5 33 91 163 570 1777 2056 1622 1501 1293 1233 619 454 306 19 0 6 209 183
1150 992 504 405 158 230 419 452 294 140 26 0 0 0 0 1 3 97 397 938 2044 2373 2155 2056 1629 1081 862 634 440 229 181 177 289
1294 1109 513 424 455 218 134 84 16 47 84 5 0 0 0 0 59 216 522 1478 2474 2544 2539 2431 1969 1689 1166 794 412 404 283 183 226
1500 1199 758 500 375 335 296 128 32 44 67 214 311 318 377 454 521 734 1183 1739 1958 2124 2348 1949 1431 1159 992 721 281 106 125 232 235
1627 1395 1103 898 712 462 361 366 570 1020 1265 1255 1225 1492 1863 2064 2046 1885 1773 1631 1510 1597 1405 1197 1072 814 426 270 118 32 22 62 183
1568 1544 1721 1641 1496 1306 1132 1129 1425 1321 1347 1479 1396 1207 958 1012 1408 1493 1258 1230 1151 1219 1441 1296 1302 1187 1069 972 964 572 434 184 306
1574 1687 1457 1314 910 797 887 1158 1021 914 555 312 243 171 161 102 150 124 200 323 743 1080 826 819 741 602 412 257 204 2 1 0 0
962 940 538 502 461 565 677 514 318 147 88 76 90 68 58 55 28 25 36 31 53 344 283 519 529 651 730 543 520 255 7 0 0
518 254 130 4 43 287 250 56 23 9 0 1 38 30 1 0 0 3 44 29 0 2 0 0 0 0 59 398 514 540 152 0 0
241 45 0 0 0 0 0 0 0 0 0 0 0 0 0 0 0 0 17 0 0 0 0 0 0 0 0 8 187 356 453 90 0
39 0 0 0 0 0 0 0 0 0 0 0 0 0 0 0 0 0 0 0 0 0 0 0 0 0 0 0 0 13 6 21 0
0 0 0 0 0 0 0 0 0 0 0 0 0 0 0 0 0 0 0 0 0 0 0 0 0 0 0 0 0 0 0 48 192
0 0 0 0 0 0 0 0 0 0 0 0 0 0 0 0 0 0 0 0 0 0 0 0 0 0 0 0 0 0 0 0 0
0 0 0 0 0 0 0 0 0 0 0 0 0 0 0 0 0 0 0 0 0 0 0 0 0 0 0 0 0 0 0 0 0
0 0 0 0 0 0 0 0 0 0 0 0 0 0 0 0 0 0 0 0 0 0 0 0 0 0 0 0 0 0 0 0 0